"Time","Temp","Dewpoint","Humidity","Pressure","Direction","Speed","Gust","Precip","PrecipRate"
"00:04:56","62.9","58.8","86.5","30.12","296","0","0","0.00","0.00"
"00:09:57","62.7","58.8","87","30.12","296","0","0","0.00","0.00"
"00:14:57","62.5","58.6","87","30.12","296","0","0","0.00","0.00"
"00:19:59","62.4","58.6","87.4","30.12","296","0","0","0.00","0.00"
"00:24:57","62.2","58.6","88","30.12","296","0","0","0.00","0.00"
"00:29:55","62.1","58.5","88","30.12","296","0","0","0.00","0.00"
"00:34:59","62","58.4","88","30.12","296","0","0","0.00","0.00"
"00:39:57","61.9","58.4","88.2","30.12","296","0","0","0.00","0.00"
"00:44:59","61.9","58.5","88.8","30.12","296","0","0","0.00","0.00"
"00:49:57","61.8","58.5","89","30.12","296","0","0","0.00","0.00"
"00:54:56","61.7","58.4","89","30.12","296","0","0","0.00","0.00"
"00:59:58","61.6","58.3","89","30.12","296","0","0","0.00","0.00"
"01:04:56","61.4","58.2","89.2","30.12","296","0","0","0.00","0.00"
"01:09:59","61.3","58.3","90","30.12","296","0","0","0.00","0.00"
"01:14:57","61.2","58.2","90","30.12","296","0","0","0.00","0.00"
"01:19:59","61.1","58.1","90","30.12","296","0","0","0.00","0.00"
"01:24:57","61","58","90","30.12","296","0","0","0.00","0.00"
"01:29:56","60.9","58.2","90.7","30.12","296","0","0","0.00","0.00"
"01:34:59","60.7","58.1","91","30.12","296","0","0","0.00","0.00"
"01:39:56","60.7","58.1","91","30.12","296","0","0","0.00","0.00"
"01:44:59","60.7","58.1","91","30.12","296","0","0","0.00","0.00"
"01:49:57","60.6","58","91","30.12","296","0","0","0.00","0.00"
"01:54:59","60.5","58","91.4","30.12","296","0","0","0.00","0.00"
"01:59:57","60.4","58.1","92","30.12","296","0","0","0.00","0.00"
"02:04:56","60.3","58","92","30.11","296","0","0","0.00","0.00"
"02:09:59","60.2","57.9","92","30.11","296","0","0","0.00","0.00"
"02:14:57","60.1","57.8","92","30.11","296","0","0","0.00","0.00"
"02:19:59","60","57.7","92","30.11","296","0","0","0.00","0.00"
"02:24:57","59.9","57.7","92.1","30.11","296","0","0","0.00","0.00"
"02:29:59","59.9","57.9","93","30.11","296","0","0","0.00","0.00"
"02:34:58","59.8","57.8","93","30.11","296","0","0","0.00","0.00"
"02:39:59","59.7","57.7","93","30.11","296","0","0","0.00","0.00"
"02:44:57","59.7","57.7","93","30.11","296","0","0","0.00","0.00"
"02:49:59","59.6","57.6","93","30.11","296","0","0","0.00","0.00"
"02:54:58","59.5","57.5","93","30.11","296","0","0","0.00","0.00"
"02:59:56","59.5","57.5","93","30.11","296","0","0","0.00","0.00"
"03:04:58","59.4","57.4","93","30.11","296","0","0","0.00","0.00"
"03:09:58","59.3","57.4","93.3","30.11","296","0","0","0.00","0.00"
"03:14:59","59.2","57.5","93.8","30.11","296","0","0","0.00","0.00"
"03:19:57","59.1","57.4","93.8","30.11","296","0","0","0.00","0.00"
"03:24:56","59.1","57.4","94","30.11","296","0","0","0.00","0.00"
"03:29:59","59","57.3","94","30.11","296","0","0","0.00","0.00"
"03:34:57","59","57.3","94","30.11","296","0","0","0.00","0.00"
"03:39:58","59","57.3","94","30.11","296","0","0","0.00","0.00"
"03:44:56","58.9","57.2","94","30.11","296","0","0","0.00","0.00"
"03:49:59","58.8","57.1","94.1","30.11","296","0","0","0.00","0.00"
"03:54:57","58.9","57.3","94.5","30.11","296","0","0","0.00","0.00"
"03:59:59","58.8","57.1","94","30.11","296","0","0","0.00","0.00"
"04:04:57","58.8","57.2","94.2","30.11","296","0","0","0.00","0.00"
"04:09:57","58.7","57","94","30.11","296","0","0","0.00","0.00"
"04:14:59","58.7","57","94","30.11","296","0","0","0.00","0.00"
"04:19:57","58.7","57","94","30.10","296","0","0","0.00","0.00"
"04:24:59","58.6","56.9","94","30.10","296","0","0","0.00","0.00"
"04:29:58","58.6","57.2","94.9","30.10","296","0","0","0.00","0.00"
"04:34:56","58.5","57.1","95","30.10","296","0","0","0.00","0.00"
"04:39:57","58.5","57.1","95","30.10","296","0","0","0.00","0.00"
"04:44:56","58.5","57.1","95","30.10","296","0","0","0.00","0.00"
"04:49:58","58.5","57.1","95","30.10","296","0","0","0.00","0.00"
"04:54:56","58.4","57","95","30.10","296","0","0","0.00","0.00"
"04:59:58","58.3","56.9","95","30.10","296","0","0","0.00","0.00"
"05:04:57","58.3","56.9","95","30.10","296","0","0","0.00","0.00"
"05:09:56","58.3","56.9","95","30.10","296","0","0","0.00","0.00"
"05:14:57","58.4","57","95","30.11","296","0","0","0.00","0.00"
"05:19:59","58.4","57","95","30.11","296","0","0","0.00","0.00"
"05:24:57","58.3","56.9","95","30.11","296","0","0","0.00","0.00"
"05:29:59","58.2","56.8","95","30.11","296","0","0","0.00","0.00"
"05:34:57","58.1","56.7","94.8","30.11","296","0","0","0.00","0.00"
"05:39:59","58","56.6","95","30.11","296","0","0","0.00","0.00"
"05:44:57","58.1","56.8","95.5","30.11","296","0","0","0.00","0.00"
"05:49:59","58.1","56.7","95","30.11","296","0","0","0.00","0.00"
"05:54:58","58.1","56.7","95","30.11","296","0","0","0.00","0.00"
"05:59:57","58.1","56.7","95","30.11","296","0.3","2","0.00","0.00"
"06:04:59","58.1","56.7","95","30.11","296","0.6","2.3","0.00","0.00"
"06:09:59","58.1","56.7","95","30.11","296","0","0","0.00","0.00"
"06:14:57","58","56.6","95","30.11","296","0","0","0.00","0.00"
"06:19:56","57.9","56.5","95","30.11","296","0","0","0.00","0.00"
"06:24:59","57.8","56.4","95","30.11","296","0","1.2","0.00","0.00"
"06:29:58","57.8","56.4","95","30.11","296","0","0","0.00","0.00"
"06:34:57","57.8","56.4","95","30.11","296","0","0","0.00","0.00"
"06:39:59","57.8","56.4","95.2","30.11","296","0","1.2","0.00","0.00"
"06:44:57","57.8","56.7","96","30.12","296","0","1.2","0.00","0.00"
"06:49:59","58","56.9","96","30.12","296","0","0","0.00","0.00"
"06:54:57","58.2","57.2","96.2","30.12","296","0.7","3","0.00","0.00"
"06:59:58","58.5","57.5","96.3","30.12","296","0.8","2.3","0.00","0.00"
"07:04:57","59","57.9","96","30.12","296","1.2","3.5","0.00","0.00"
"07:09:56","59.4","58.1","95.3","30.12","295","0.5","4","0.00","0.00"
"07:14:57","59.8","58.4","95","30.13","295","0","0","0.00","0.00"
"07:19:59","60.2","58.8","95","30.13","295","0","0","0.00","0.00"
"07:24:57","60.8","59.4","94.9","30.13","295","0","0","0.00","0.00"
"07:29:58","61.3","59.4","93.5","30.13","295","0","0","0.00","0.00"
"07:34:56","61.6","59.6","93","30.13","295","0","0","0.00","0.00"
"07:39:57","62","59.7","92.3","30.13","295","0.3","2.3","0.00","0.00"
"07:44:58","62.4","59.7","91.1","30.14","295","0.8","2.3","0.00","0.00"
"07:49:55","62.7","59.9","90.7","30.14","295","0.8","3.5","0.00","0.00"
"07:54:57","63","60","90","30.14","295","0.9","3.5","0.00","0.00"
"07:59:59","63.5","60.1","88.7","30.14","319","1.2","4","0.00","0.00"
"08:04:57","63.9","60.2","87.5","30.14","328","1.5","3.5","0.00","0.00"
"08:09:57","64.2","60.3","87","30.14","329","0.7","3.5","0.00","0.00"
"08:14:58","64.7","60.4","85.9","30.14","329","1","3.5","0.00","0.00"
"08:19:59","65.2","60.6","85.2","30.14","329","0.9","3.5","0.00","0.00"
"08:24:57","65.7","60.7","84","30.14","329","0.6","3","0.00","0.00"
"08:29:59","66.3","60.9","82.8","30.15","329","1.2","3","0.00","0.00"
"08:34:56","66.8","61.3","82.4","30.15","329","0.8","3","0.00","0.00"
"08:39:57","67.4","61.5","81.3","30.15","329","0.4","2.3","0.00","0.00"
"08:44:59","68.3","62.1","80.6","30.15","328","0.1","1.2","0.00","0.00"
"08:49:56","69","62.4","79.5","30.15","328","0.6","3","0.00","0.00"
"08:54:58","69.5","62.2","77.5","30.15","329","0.3","2.3","0.00","0.00"
"08:59:59","70.2","62.1","75.5","30.15","329","0.6","3","0.00","0.00"
"09:04:58","70.8","61.9","73.6","30.15","314","1.4","3.5","0.00","0.00"
"09:09:57","71","61.7","72.5","30.15","284","0.8","3.5","0.00","0.00"
"09:14:58","71.2","62","72.5","30.15","285","1.1","3.5","0.00","0.00"
"09:19:56","71.6","62.1","71.9","30.15","286","0.5","3.5","0.00","0.00"
"09:24:57","72","61.5","69.4","30.15","283","1.4","3.5","0.00","0.00"
"09:29:59","72.3","61.5","68.9","30.16","274","1.2","3.5","0.00","0.00"
"09:34:57","72.6","61.8","68.9","30.16","247","0.9","3.5","0.00","0.00"
"09:39:58","73","62.5","69.6","30.16","229","1.1","3.5","0.00","0.00"
"09:44:59","73.5","62.5","68.4","30.16","229","0.9","3.5","0.00","0.00"
"09:49:57","74","63","68.5","30.15","237","1.1","3.5","0.00","0.00"
"09:54:59","74.3","62.5","66.7","30.15","252","0.4","3.5","0.00","0.00"
"09:59:57","74.7","62.6","66","30.16","244","1.1","3.5","0.00","0.00"
"10:04:59","75.1","62.7","65.4","30.16","171","1.4","4","0.00","0.00"
"10:09:59","75.4","63.3","66.2","30.16","177","1.4","3.5","0.00","0.00"
"10:14:56","75.8","63.4","65.7","30.16","177","0.7","3.5","0.00","0.00"
"10:19:58","76","63.1","64.3","30.16","198","2","3.5","0.00","0.00"
"10:24:59","76","62.7","63.5","30.16","216","1.8","4","0.00","0.00"
"10:29:57","76.2","63.3","64.5","30.16","198","1","3.5","0.00","0.00"
"10:34:59","76.4","63.6","64.6","30.16","186","1.5","6","0.00","0.00"
"10:39:56","76.8","64.1","65","30.16","191","1.2","4","0.00","0.00"
"10:44:58","77.3","64.3","64.4","30.16","206","1.9","5","0.00","0.00"
"10:49:56","77.8","64","62.7","30.15","212","1.3","5","0.00","0.00"
"10:54:58","78.1","63.8","61.6","30.15","217","1.6","4","0.00","0.00"
"10:59:56","78.3","64.2","62.1","30.15","213","1.4","3.5","0.00","0.00"
"11:04:58","78.6","64","61","30.15","212","1","4","0.00","0.00"
"11:09:57","78.9","63.2","58.7","30.15","229","1.9","4","0.00","0.00"
"11:14:58","79.2","63.9","59.6","30.15","244","1.8","5","0.00","0.00"
"11:19:59","79.2","62.8","57.4","30.15","221","1.3","3.5","0.00","0.00"
"11:24:57","79.4","62.5","56.4","30.15","190","2.1","5","0.00","0.00"
"11:29:59","79.7","62.8","56.3","30.16","190","1.8","4","0.00","0.00"
"11:34:57","80.1","63.1","56.3","30.16","196","0.6","4","0.00","0.00"
"11:39:58","80.6","63.6","56.3","30.16","206","1.7","4","0.00","0.00"
"11:44:56","81.2","63.6","55.2","30.16","191","1.1","6","0.00","0.00"
"11:49:57","81.4","62","51.8","30.15","333","2.8","5.8","0.00","0.00"
"11:54:59","81.1","63.2","54.6","30.15","317","1.7","4","0.00","0.00"
"11:59:56","81.4","63","53.8","30.15","307","0.8","3.5","0.00","0.00"
"12:04:59","81.4","63.2","54","30.15","158","1","3.5","0.00","0.00"
"12:09:59","81.7","63.4","53.9","30.15","117","1","5","0.00","0.00"
"12:14:56","81.9","63","52.8","30.15","325","2.2","8","0.00","0.00"
"12:19:58","82.2","63","52.3","30.15","345","1.6","7","0.00","0.00"
"12:24:56","82.5","62.3","50.6","30.15","345","2.6","7","0.00","0.00"
"12:29:57","82.6","62.2","50.4","30.15","244","1.9","5","0.00","0.00"
"12:34:59","82.5","63.3","52.3","30.15","240","0.4","2.3","0.00","0.00"
"12:39:55","82.8","63.3","51.9","30.15","184","1.5","4","0.00","0.00"
"12:44:57","82.9","63.8","52.6","30.15","138","1.7","5","0.00","0.00"
"12:49:58","83","62.5","50","30.14","310","1.9","4.6","0.00","0.00"
"12:54:56","83.1","63.6","51.8","30.14","357","1.2","5","0.00","0.00"
"12:59:57","83.3","62.5","49.6","30.14","331","3.2","9.2","0.00","0.00"
"13:04:57","83.2","62.5","49.8","30.14","325","3.4","6.9","0.00","0.00"
"13:09:57","83.4","62.4","49.4","30.14","315","1.9","4","0.00","0.00"
"13:14:58","83.5","62.4","49","30.14","242","1.7","3.5","0.00","0.00"
"13:19:55","83.8","63.8","51.2","30.14","310","1.4","4","0.00","0.00"
"13:24:57","84.5","64.3","50.9","30.14","346","1.5","3.5","0.00","0.00"
"13:29:59","84.7","62.7","47.9","30.14","19","0.9","4","0.00","0.00"
"13:34:58","84.7","62.4","47.3","30.13","329","4","7","0.00","0.00"
"13:39:59","84.4","62.4","47.7","30.13","352","1.2","5","0.00","0.00"
"13:44:57","84.3","63.1","49","30.13","347","0.5","4","0.00","0.00"
"13:49:58","84.7","63.8","49.7","30.13","319","1","5","0.00","0.00"
"13:54:56","85.1","63.9","49.2","30.13","345","2.3","6","0.00","0.00"
"13:59:57","85.2","63.5","48.3","30.13","333","2.8","7","0.00","0.00"
"14:04:56","84.9","62.6","47.4","30.12","312","1.3","5.8","0.00","0.00"
"14:09:56","85","63","48","30.12","307","0.9","3.5","0.00","0.00"
"14:14:57","85.3","63.7","48.7","30.12","322","2.8","7","0.00","0.00"
"14:19:59","85.3","63","47.2","30.12","234","3.3","5","0.00","0.00"
"14:24:56","85.3","62.8","47.1","30.12","228","3.6","9","0.00","0.00"
"14:29:58","85","63","47.9","30.12","246","3.6","9.2","0.00","0.00"
"14:34:59","85","63.4","48.6","30.11","203","3.2","7","0.00","0.00"
"14:39:56","85.5","63.9","48.6","30.11","201","2.4","5","0.00","0.00"
"14:44:58","86","64","48.1","30.11","212","2.7","6","0.00","0.00"
"14:49:56","86.3","63.5","46.7","30.11","199","2","5","0.00","0.00"
"14:54:58","86.4","63.2","46.1","30.11","236","2.1","4","0.00","0.00"
"14:59:59","86.6","63.8","46.9","30.11","359","1.5","4","0.00","0.00"
"15:04:58","86.9","63.7","46.2","30.10","347","1.8","4","0.00","0.00"
"15:09:59","86.9","63.4","45.6","30.10","348","1.7","6","0.00","0.00"
"15:14:57","87","63.8","46.2","30.10","39","0.9","3.5","0.00","0.00"
"15:19:56","86.9","62.8","44.7","30.09","69","1.3","3.5","0.00","0.00"
"15:24:57","86.4","63.4","46.4","30.09","106","1.6","4","0.00","0.00"
"15:29:59","86.6","63.9","46.9","30.09","320","1.4","3.5","0.00","0.00"
"15:34:57","87","63.4","45.5","30.09","323","2.9","6","0.00","0.00"
"15:39:59","86.9","62.5","44.2","30.09","309","1.7","7","0.00","0.00"
"15:44:57","87","63.5","45.7","30.09","163","2.4","5","0.00","0.00"
"15:49:56","87.2","63.2","44.9","30.09","185","2","4","0.00","0.00"
"15:54:58","88","63.8","44.8","30.09","217","2.8","5","0.00","0.00"
"15:59:56","88.3","63.4","43.7","30.09","235","1.9","5","0.00","0.00"
"16:04:56","87.9","62.4","42.7","30.09","342","3","6","0.00","0.00"
"16:09:59","87.6","62.8","43.7","30.09","202","3.2","6","0.00","0.00"
"16:14:56","87.5","62.2","42.9","30.09","262","2.5","5","0.00","0.00"
"16:19:59","87.4","61.9","42.6","30.09","309","1.9","6","0.00","0.00"
"16:24:59","87","61.4","42.5","30.09","260","2.2","5","0.00","0.00"
"16:29:57","86.8","61.8","43.3","30.09","293","2","4.6","0.00","0.00"
"16:34:56","86.6","60.7","41.8","30.08","341","1.7","5","0.00","0.00"
"16:39:59","86.5","61.1","42.8","30.08","343","2","4","0.00","0.00"
"16:44:57","86.4","61.8","43.8","30.09","331","1.9","5","0.00","0.00"
"16:49:59","86.6","61.8","43.6","30.09","308","2","4.6","0.00","0.00"
"16:54:58","86.7","62.6","44.8","30.09","315","1.8","4","0.00","0.00"
"16:59:58","86.8","62.8","44.8","30.09","286","1.7","4","0.00","0.00"
"17:04:56","86.9","62.2","43.8","30.08","199","2","4","0.00","0.00"
"17:09:57","86.6","62.3","44.3","30.08","188","1.6","3.5","0.00","0.00"
"17:14:58","86.5","62.3","44.5","30.08","188","1.7","4","0.00","0.00"
"17:19:57","86.8","64","46.8","30.08","204","1.9","5","0.00","0.00"
"17:24:55","87.2","63.8","45.8","30.08","236","2.1","5","0.00","0.00"
"17:29:58","87.4","64","45.9","30.09","229","2.4","5","0.00","0.00"
"17:34:59","87.3","63.8","45.7","30.09","217","2.6","6","0.00","0.00"
"17:39:57","87.4","63.1","44.6","30.09","243","3","6","0.00","0.00"
"17:44:56","87","62.9","44.7","30.09","260","2.8","5.8","0.00","0.00"
"17:49:58","86.6","62.6","44.8","30.09","294","2.1","5","0.00","0.00"
"17:54:56","86.3","62.1","44.4","30.09","298","2.4","4","0.00","0.00"
"17:59:55","86.4","63","45.7","30.09","246","2.4","5","0.00","0.00"
"18:04:59","86.8","63.3","45.7","30.09","197","1.9","5","0.00","0.00"
"18:09:59","86.6","63.3","45.8","30.09","195","1.2","3.5","0.00","0.00"
"18:14:59","86.5","63.2","45.9","30.09","212","1.5","4","0.00","0.00"
"18:19:59","86.6","64","46.9","30.09","226","2.7","5","0.00","0.00"
"18:24:56","86.5","63.2","45.8","30.09","307","2","4.6","0.00","0.00"
"18:29:56","86.3","63.3","46.4","30.09","275","2","4","0.00","0.00"
"18:34:57","86","63.5","47.2","30.09","282","1.6","3.5","0.00","0.00"
"18:39:58","85.7","63.7","48","30.09","246","2.3","5","0.00","0.00"
"18:44:58","85.3","63.6","48.3","30.09","243","2.2","5","0.00","0.00"
"18:49:58","85","63.8","49.1","30.09","271","1.8","3.5","0.00","0.00"
"18:54:56","84.5","63.2","48.9","30.09","240","2.5","7","0.00","0.00"
"18:59:59","84.1","63.4","49.9","30.09","238","2.1","8","0.00","0.00"
"19:04:57","83.7","63","49.9","30.09","233","3","6","0.00","0.00"
"19:09:58","83.3","64","52.2","30.09","235","1.6","3.5","0.00","0.00"
"19:14:56","83","63.9","52.5","30.09","250","2.1","5","0.00","0.00"
"19:19:59","82.8","63.8","52.9","30.09","235","2.1","5","0.00","0.00"
"19:24:57","82.6","63.9","53.5","30.09","231","1.5","3.5","0.00","0.00"
"19:29:55","82.4","64","53.9","30.09","228","1.7","4","0.00","0.00"
"19:34:59","82.3","64","54.1","30.09","229","0.9","3.5","0.00","0.00"
"19:39:57","82.1","64.1","54.5","30.09","229","0.8","2.3","0.00","0.00"
"19:44:56","82","64.2","55","30.10","229","0.3","2.3","0.00","0.00"
"19:49:59","81.6","64.2","55.5","30.10","229","0.1","1.2","0.00","0.00"
"19:54:59","81.3","64.4","56.5","30.10","229","0.1","1.2","0.00","0.00"
"19:59:59","80.9","64.4","57.4","30.10","229","0.3","1.2","0.00","0.00"
"20:04:59","80.5","64.7","58.7","30.10","229","0","1.2","0.00","0.00"
"20:09:56","80.1","65.1","60.3","30.10","229","0.1","1.2","0.00","0.00"
"20:14:56","79.5","64.8","60.9","30.10","229","0","0","0.00","0.00"
"20:19:58","78.7","64.1","61","30.10","229","0.1","1.2","0.00","0.00"
"20:24:56","78","63.9","61.9","30.10","229","0","0","0.00","0.00"
"20:29:58","77.5","63.7","62.5","30.10","229","0","0","0.00","0.00"
"20:34:56","77","63.6","63.4","30.10","229","0","2","0.00","0.00"
"20:39:57","76.5","64","65.3","30.10","229","0.6","3.5","0.00","0.00"
"20:44:59","76","63.8","66","30.11","229","0","0","0.00","0.00"
"20:49:57","75.5","63.4","66.1","30.11","229","0","0","0.00","0.00"
"20:54:59","75.2","64","68.4","30.11","229","0","1.2","0.00","0.00"
"20:59:56","74.7","64.2","69.7","30.11","229","0.2","1.2","0.00","0.00"
"21:04:59","74.4","64","70","30.11","229","0","1.2","0.00","0.00"
"21:09:59","74.1","63.9","70.6","30.11","229","0","0","0.00","0.00"
"21:14:58","73.8","64.1","71.8","30.12","229","0","0","0.00","0.00"
"21:19:56","73.6","64.1","72.2","30.12","229","0","0","0.00","0.00"
"21:24:58","73.3","64.1","73","30.12","229","0","0","0.00","0.00"
"21:29:56","73","63.8","73","30.12","229","0","0","0.00","0.00"
"21:34:59","72.8","63.7","73.2","30.12","229","0","0","0.00","0.00"
"21:39:57","72.7","63.9","74","30.12","229","0","0","0.00","0.00"
"21:44:56","72.5","63.7","74","30.13","229","0","0","0.00","0.00"
"21:49:57","72.3","63.7","74.5","30.13","229","0","0","0.00","0.00"
"21:54:59","72.2","63.8","75","30.13","229","0","0","0.00","0.00"
"21:59:57","72.1","63.7","75","30.13","229","0.1","1.2","0.00","0.00"
"22:04:57","72","63.9","75.7","30.13","229","0.6","2.3","0.00","0.00"
"22:09:56","71.9","63.9","76","30.13","229","0.4","2.3","0.00","0.00"
"22:14:57","72","64","76","30.14","229","0.7","2.3","0.00","0.00"
"22:19:58","71.9","63.9","76","30.14","229","0.7","2.3","0.00","0.00"
"22:24:57","71.9","63.9","76","30.14","229","1.1","2.3","0.00","0.00"
"22:29:58","72.1","63.8","75.5","30.14","229","0.8","2.3","0.00","0.00"
"22:34:59","72.2","63.8","75","30.14","229","0.6","3","0.00","0.00"
"22:39:56","72.2","63.8","75","30.14","229","0.2","1.2","0.00","0.00"
"22:44:58","72.3","63.9","75","30.14","229","0","1.2","0.00","0.00"
"22:49:58","72.3","63.9","75","30.14","229","0.8","2.3","0.00","0.00"
"22:54:57","72.3","63.9","75","30.14","229","0.8","2.3","0.00","0.00"
"22:59:58","72.4","64","75","30.14","228","0.8","4","0.00","0.00"
"23:04:53","72.4","64","75","30.14","228","0.3","3.5","0.00","0.00"
"23:09:56","72.3","63.9","75","30.14","228","0.4","2.3","0.00","0.00"
"23:14:56","72.3","63.9","75","30.14","228","0.2","2.3","0.00","0.00"
"23:19:57","72.3","63.9","75","30.14","228","0.2","1.2","0.00","0.00"
"23:24:58","72.4","64","75","30.14","228","0.6","2.3","0.00","0.00"
"23:29:57","72.3","63.9","75","30.14","190","1","3.5","0.00","0.00"
"23:34:58","72.3","64.1","75.6","30.14","154","0.4","1.2","0.00","0.00"
"23:39:58","72.1","64.1","76","30.14","154","0.5","2","0.00","0.00"
"23:44:58","71.9","64.2","76.7","30.14","154","0.4","2","0.00","0.00"
"23:49:58","71.7","64.1","77","30.14","154","0.1","1.2","0.00","0.00"
"23:54:59","71.7","64.1","77","30.14","154","0","0","0.00","0.00"
"23:59:59","71.5","63.9","77","30.14","154","0","1.2","0.00","0.00"
